Location: Gleizolles
(44.4833°N, 6.7667°E)
Time: 07:18:44
(UTC+00:00)

PCSat - Visible Passes

Search period start: 07 December 2022 00:00
Search period end: 17 December 2022 00:00
Orbit: 785 x 793 km, 67.1° (Epoch: 06 December)

Date Brightness Start Highest point End Pass type
(mag) Time Alt. Az. Time Alt. Az. Time Alt. Az.
07 Dec 11.4 16:23:31 10° SE 16:25:58 13° ESE 16:28:25 10° ENE visible
07 Dec 9.5 18:03:06 10° SSW 18:08:31 89° SE 18:10:07 48° NNE visible
07 Dec 12.1 19:48:48 10° W 19:50:50 17° WNW 19:50:50 17° WNW visible
08 Dec 9.5 17:32:00 10° SSW 17:37:21 67° ESE 17:40:18 27° NE visible
08 Dec 11.5 19:16:52 10° W 19:21:01 24° NW 19:21:01 24° NW visible
09 Dec 9.9 17:01:03 10° S 17:06:13 49° ESE 17:10:24 16° NE visible
09 Dec 11.1 18:45:04 10° WSW 18:49:49 30° NW 18:51:08 27° NNW visible
10 Dec 10.3 16:30:16 10° S 16:35:08 36° ESE 16:40:02 10° NE visible
10 Dec 10.7 18:13:25 10° WSW 18:18:28 39° NW 18:21:10 24° N visible
11 Dec 10.3 17:41:54 10° SW 17:47:09 51° NW 17:51:08 17° NNE visible
11 Dec 12.1 19:29:28 10° WNW 19:31:50 13° NNW 19:31:50 13° NNW visible
12 Dec 9.9 17:10:31 10° SW 17:15:54 67° NW 17:21:03 11° NNE visible
12 Dec 11.8 18:57:07 10° WNW 19:00:19 16° NW 19:01:44 14° NNW visible
13 Dec 9.6 16:39:16 10° SSW 16:44:41 89° NW 16:50:09 10° NNE visible
13 Dec 11.7 18:25:00 10° W 18:28:50 19° NW 18:31:37 14° N visible
14 Dec 11.4 17:53:03 10° W 17:57:23 24° NW 18:01:26 11° N visible
15 Dec 11.1 17:21:15 10° WSW 17:25:59 30° NW 17:30:45 10° NNE visible
16 Dec 10.8 16:49:36 10° WSW 16:54:38 38° NW 16:59:42 10° NNE visible
16 Dec 12.1 18:38:39 10° NW 18:39:38 10° NNW 18:40:36 10° NNW visible
